Location: Buckeye Ditch
(40.9104°N, 122.9517°W)
Time: 19:48:13
(UTC+00:00)

Vanguard 1 - Pass Details

Date: 23 May 2025
Orbit: 649 x 3822 km, 34.3° (Epoch: 15 June)

Event Time Altitude Azimuth Distance (km) Brightness Sun altitude
Rises 05:17:15 0° 276° (W) 6,249 14.9 -16.7°
Reaches altitude 10° 05:22:20 10° 271° (W) 4,694 14.1 -17.4°
Maximum altitude 05:32:55 41° 207° (SSW) 1,905 11.3 -18.6°
Enters shadow 05:36:07 28° 160° (SSE) 2,030 11.1 -19.0°
